Mandan, ND

3:26 AM CDT on August 22, 2017 (GMT -0500)
Mandan

Weather History for KY19 - April, 2013

Change the Weather History Date:

Sunday, April 14, 2013

  Actual Average (KBIS) Record (KBIS)
Temperature  
Mean Temperature 26 °F -  
Max Temperature 28 °F 54 °F 88 °F (1915)
Min Temperature 24 °F 28 °F 6 °F (1893)
Degree Days  
Heating Degree Days 39    
Moisture  
Dew Point 27 °F    
Average Humidity 100    
Maximum Humidity 100    
Minimum Humidity 100    
Precipitation  
Precipitation 41.04 in - - ()
Sea Level Pressure  
Sea Level Pressure 29.61 in    
Wind  
Wind Speed 22 mph (ENE)    
Max Wind Speed 28 mph    
Max Gust Speed 36 mph    
Visibility 1 miles    
Events Snow    
Averages and records for this station are not official NWS values.
T = Trace of Precipitation, MM = Missing Value Source: NWS Daily Summary

Daily Weather History Graph

Daily Weather History Graph

Search for Another Location

Airport or City:

Trip Planner

Search our weather history database for the weather conditions in past years. The results will help you decide how hot, cold, wet, or windy it might be!

Date:

Astronomy

Apr. 14, 2013 Rise Set
Actual Time 6:57 AM CDT 8:30 PM CDT
Civil Twilight 6:25 AM CDT 9:02 PM CDT
Nautical Twilight 5:47 AM CDT 9:41 PM CDT
Astronomical Twilight 5:05 AM CDT 10:23 PM CDT
Moon 9:24 AM CDT (4/14) 12:06 AM CDT (4/14)
Length of Visible Light 14h 36m
Length of Day
13h 33m
Waxing Crescent, 17% of the Moon is Illuminated
Apr 14
Waxing Crescent
Apr 18
First Quarter
Apr 25
Full
May 2
Last Quarter
May 9
New

Hourly Weather History & Observations

Time (CDT) Temp. Windchill Dew Point Humidity Pressure Visibility Wind Dir Wind Speed Gust Speed Precip Events Conditions
12:15 AM 26.6 °F 12.0 °F 26.6 °F 100% 29.71 in 2.5 mi East 23.0 mph 28.8 mph 0.01 in Snow Light Snow
12:35 AM 26.6 °F 13.8 °F 26.6 °F 100% 29.72 in 3.0 mi East 17.3 mph 24.2 mph 0.03 in Snow Light Snow
12:55 AM 26.6 °F 11.4 °F 26.6 °F 100% 29.70 in 3.0 mi East 25.3 mph 33.4 mph 0.04 in Snow Light Snow
1:15 AM 26.6 °F 12.7 °F 26.6 °F 100% 29.69 in 4.0 mi East 20.7 mph 27.6 mph 0.01 in Snow Light Snow
1:35 AM 26.6 °F 12.4 °F 26.6 °F 100% 29.68 in 5.0 mi East 21.9 mph 28.8 mph 0.02 in   Overcast
1:55 AM 26.6 °F 12.7 °F 26.6 °F 100% 29.69 in 3.0 mi East 20.7 mph 28.8 mph 0.05 in Snow Light Snow
2:15 AM 26.6 °F 12.7 °F 26.6 °F 100% 29.68 in 2.5 mi East 20.7 mph 26.5 mph 0.02 in Snow Light Snow
2:35 AM 26.6 °F 12.4 °F 26.6 °F 100% 29.67 in 1.5 mi East 21.9 mph 27.6 mph 0.07 in Snow Light Snow
2:55 AM 26.6 °F 11.7 °F 26.6 °F 100% 29.66 in 2.0 mi East 24.2 mph 32.2 mph 0.12 in Snow Light Snow
3:15 AM 26.6 °F 12.4 °F 26.6 °F 100% 29.66 in 1.8 mi East 21.9 mph 29.9 mph 0.04 in Snow Light Snow
3:35 AM 26.6 °F 12.4 °F 26.6 °F 100% 29.64 in 1.8 mi East 21.9 mph 29.9 mph 0.10 in Snow Light Snow
3:55 AM 26.6 °F 12.7 °F 26.6 °F 100% 29.63 in 2.0 mi East 20.7 mph 29.9 mph 0.13 in Snow Light Snow
4:15 AM 26.6 °F 11.4 °F 26.6 °F 100% 29.63 in 1.8 mi East 25.3 mph 35.7 mph 0.02 in Snow Light Snow
4:35 AM 26.6 °F 11.7 °F 26.6 °F 100% 29.63 in 1.2 mi East 24.2 mph 32.2 mph 0.10 in Snow Light Snow
4:55 AM 26.6 °F 12.4 °F 26.6 °F 100% 29.62 in 1.2 mi East 21.9 mph 33.4 mph 0.20 in Snow Light Snow
5:15 AM 26.6 °F 11.4 °F 26.6 °F 100% 29.61 in 0.5 mi East 25.3 mph 32.2 mph 0.18 in Snow Snow
5:35 AM 26.6 °F 11.4 °F 26.6 °F 100% 29.61 in 0.5 mi East 25.3 mph 32.2 mph 0.37 in Snow Snow
5:55 AM 26.6 °F 10.8 °F 26.6 °F 100% 29.60 in 0.5 mi East 27.6 mph 35.7 mph 0.94 in Snow Snow
6:15 AM 26.6 °F 12.4 °F 26.6 °F 100% 29.60 in 1.0 mi East 21.9 mph 32.2 mph 0.32 in   Overcast
6:35 AM 26.6 °F 11.7 °F 26.6 °F 100% 29.59 in 1.5 mi East 24.2 mph 29.9 mph 0.66 in   Overcast
6:55 AM 26.6 °F 12.4 °F 26.6 °F 100% 29.59 in 0.2 mi East 21.9 mph 33.4 mph 1.49 in Snow Heavy Snow
7:15 AM 26.6 °F 11.7 °F 26.6 °F 100% 29.60 in 0.2 mi East 24.2 mph 29.9 mph 0.66 in Snow Heavy Snow
7:35 AM 26.6 °F 12.7 °F 26.6 °F 100% 29.60 in 0.2 mi East 20.7 mph 31.1 mph 1.25 in Snow Heavy Snow
7:55 AM 24.8 °F 9.3 °F 24.8 °F 100% 29.61 in 0.2 mi East 24.2 mph 29.9 mph 1.65 in Snow Heavy Snow
8:15 AM 24.8 °F 9.6 °F 24.8 °F 100% 29.61 in 0.2 mi East 23.0 mph 32.2 mph 0.32 in Snow Heavy Snow
8:35 AM 24.8 °F 10.0 °F 24.8 °F 100% 29.61 in 0.2 mi East 21.9 mph 33.4 mph 0.91 in Snow Heavy Snow
8:55 AM 24.8 °F 10.0 °F 24.8 °F 100% 29.60 in 0.2 mi East 21.9 mph 32.2 mph 1.55 in Snow Heavy Snow
9:15 AM 24.8 °F 9.3 °F 24.8 °F 100% 29.60 in 0.5 mi East 24.2 mph 33.4 mph 0.22 in Snow Snow
9:35 AM 24.8 °F 11.1 °F 24.8 °F 100% 29.60 in 0.5 mi East 18.4 mph 31.1 mph 0.54 in Snow Snow
9:55 AM 24.8 °F 9.6 °F 24.8 °F 100% 29.60 in 0.2 mi East 23.0 mph 34.5 mph 0.90 in Snow Heavy Snow
10:15 AM 24.8 °F 9.3 °F 24.8 °F 100% 29.59 in 0.2 mi ENE 24.2 mph 29.9 mph 0.48 in Snow Heavy Snow
10:35 AM 24.8 °F 9.0 °F 24.8 °F 100% 29.59 in 0.2 mi ENE 25.3 mph 35.7 mph 1.21 in Snow Heavy Snow
10:55 AM 24.8 °F 10.0 °F 24.8 °F 100% 29.58 in 0.2 mi ENE 21.9 mph 34.5 mph 1.70 in Snow Heavy Snow
11:15 AM 24.8 °F 9.6 °F 24.8 °F 100% 29.58 in 0.2 mi ENE 23.0 mph 28.8 mph 0.26 in Snow Heavy Snow
11:35 AM 24.8 °F 11.5 °F 24.8 °F 100% 29.59 in 0.2 mi ENE 17.3 mph 31.1 mph 0.66 in Snow Heavy Snow
11:55 AM 24.8 °F 10.7 °F 24.8 °F 100% 29.59 in 0.2 mi ENE 19.6 mph - 1.32 in Snow Heavy Snow
12:15 PM 24.8 °F 10.7 °F 24.8 °F 100% 29.59 in 0.2 mi ENE 19.6 mph 25.3 mph 0.33 in Snow Heavy Snow
12:35 PM 24.8 °F 10.3 °F 24.8 °F 100% 29.59 in 0.2 mi ENE 20.7 mph 28.8 mph 0.67 in Snow Heavy Snow
12:55 PM 26.6 °F 12.7 °F 26.6 °F 100% 29.59 in 0.2 mi ENE 20.7 mph 31.1 mph 1.46 in Snow Heavy Snow
1:15 PM 26.6 °F 13.1 °F 26.6 °F 100% 29.58 in 0.2 mi NE 19.6 mph 27.6 mph 0.26 in Snow Heavy Snow
1:35 PM 26.6 °F 12.0 °F 26.6 °F 100% 29.57 in 0.2 mi NE 23.0 mph 29.9 mph 0.48 in Snow Heavy Snow
1:55 PM 26.6 °F 12.4 °F 26.6 °F 100% 29.58 in 0.2 mi NE 21.9 mph 28.8 mph 0.74 in Snow Heavy Snow
2:15 PM 26.6 °F 13.1 °F 26.6 °F 100% 29.58 in 0.2 mi ENE 19.6 mph 25.3 mph 0.22 in Snow Heavy Snow
2:35 PM 26.6 °F 13.4 °F 26.6 °F 100% 29.58 in 0.2 mi NE 18.4 mph 31.1 mph 0.85 in Snow Heavy Snow
2:55 PM 26.6 °F 13.1 °F 26.6 °F 100% 29.58 in 0.2 mi NE 19.6 mph 31.1 mph 1.08 in Snow Heavy Snow
3:15 PM 26.6 °F 12.7 °F 26.6 °F 100% 29.58 in 0.2 mi NE 20.7 mph 27.6 mph 0.14 in Snow Heavy Snow
3:35 PM 26.6 °F 11.1 °F 26.6 °F 100% 29.58 in 0.2 mi NE 26.5 mph 32.2 mph 0.42 in Snow Heavy Snow
3:55 PM 26.6 °F 12.7 °F 26.6 °F 100% 29.58 in 0.2 mi NE 20.7 mph 28.8 mph 0.69 in Snow Heavy Snow
4:15 PM 26.6 °F 12.4 °F 26.6 °F 100% 29.58 in 0.2 mi NE 21.9 mph 29.9 mph 0.18 in Snow Heavy Snow
4:35 PM 26.6 °F 13.1 °F 26.6 °F 100% 29.58 in 0.2 mi NE 19.6 mph 27.6 mph 0.40 in Snow Heavy Snow
4:55 PM 26.6 °F 13.1 °F 26.6 °F 100% 29.58 in 0.2 mi NE 19.6 mph 24.2 mph 0.83 in Snow Heavy Snow
5:15 PM 26.6 °F 13.4 °F 26.6 °F 100% 29.58 in 0.2 mi NE 18.4 mph 26.5 mph 0.21 in Snow Heavy Snow
5:35 PM 26.6 °F 13.4 °F 26.6 °F 100% 29.59 in 0.5 mi NE 18.4 mph 23.0 mph 0.57 in   Overcast
5:55 PM 26.6 °F 13.4 °F 26.6 °F 100% 29.59 in 0.5 mi NNE 18.4 mph - 0.81 in   Overcast
6:15 PM 28.4 °F 15.1 °F 28.4 °F 100% 29.59 in 0.2 mi NNE 20.7 mph 29.9 mph 0.58 in Snow Heavy Snow
6:35 PM 28.4 °F 15.4 °F 28.4 °F 100% 29.60 in 0.5 mi NNE 19.6 mph 25.3 mph 1.97 in Snow Snow
6:55 PM 28.4 °F 15.4 °F 28.4 °F 100% 29.61 in 0.5 mi NNE 19.6 mph 23.0 mph 3.00 in Snow Snow
7:15 PM 26.6 °F 12.4 °F 26.6 °F 100% 29.61 in 0.5 mi NNE 21.9 mph 26.5 mph 1.66 in Snow Snow
7:35 PM 26.6 °F 12.4 °F 26.6 °F 100% 29.61 in 0.5 mi NNE 21.9 mph 26.5 mph 2.97 in Snow Snow
7:55 PM 28.4 °F 15.4 °F 28.4 °F 100% 29.61 in 0.2 mi North 19.6 mph - 4.16 in Snow Heavy Snow
8:15 PM 28.4 °F 15.1 °F 28.4 °F 100% 29.62 in 0.5 mi North 20.7 mph 25.3 mph 0.77 in Snow Snow
8:35 PM 28.4 °F 15.4 °F 28.4 °F 100% 29.62 in 0.2 mi North 19.6 mph 24.2 mph 2.29 in Snow Heavy Snow
8:55 PM 28.4 °F 15.1 °F 28.4 °F 100% 29.62 in 0.2 mi North 20.7 mph - 6.21 in Snow Heavy Snow
9:15 PM 28.4 °F 14.4 °F 28.4 °F 100% 29.62 in 0.5 mi North 23.0 mph - 2.63 in Snow Snow
9:35 PM 28.4 °F 15.1 °F 28.4 °F 100% 29.63 in 0.8 mi North 20.7 mph - 5.40 in Snow Light Snow
9:55 PM 28.4 °F 15.1 °F 28.4 °F 100% 29.63 in 1.0 mi North 20.7 mph 27.6 mph 6.49 in Snow Light Snow
10:15 PM 28.4 °F 14.4 °F 28.4 °F 100% 29.63 in 1.0 mi North 23.0 mph 27.6 mph 0.61 in Snow Light Snow
10:35 PM 28.4 °F 14.4 °F 28.4 °F 100% 29.63 in 1.2 mi North 23.0 mph 29.9 mph 1.55 in Snow Light Snow
10:55 PM 28.4 °F 14.7 °F 28.4 °F 100% 29.63 in 0.8 mi North 21.9 mph - 3.20 in Snow Light Snow
11:15 PM 28.4 °F 14.7 °F 28.4 °F 100% 29.63 in 1.8 mi North 21.9 mph - 0.33 in Snow Light Snow
11:35 PM 28.4 °F 15.1 °F 28.4 °F 100% 29.62 in 1.2 mi North 20.7 mph 27.6 mph 1.20 in Snow Light Snow
11:55 PM 28.4 °F 14.1 °F 28.4 °F 100% 29.62 in 1.0 mi North 24.2 mph 32.2 mph 2.28 in Snow Light Snow